Regional Weather Roundup
Issued by NWS Mobile, AL

Home | Current Version | Previous Version | Text Only | Print | Product List | Glossary On
Versions: 1 2 3 4 5 6 7 8 9 10 11 12 13 14 15 16 17 18 19 20 21 22 23 24 25 26 27 28 29 30 31 32 33 34 35 36 37 38 39 40 41 42 43 44 45 46 47 48 49 50
000
ASUS44 KMOB 221910
RWRMOB
REGIONAL WEATHER ROUNDUP
NATIONAL WEATHER SERVICE MOBILE AL
200 PM CDT TUE JUL 22 2014

NOTE: "FAIR" INDICATES FEW OR NO CLOUDS BELOW 12,000 FEET WITH NO
      SIGNIFICANT WEATHER AND/OR OBSTRUCTIONS TO VISIBILITY.

  * THESE STATIONS ARE PART OF THE UNIVERSITY OF SOUTH ALABAMA
    MESONET AND ARE NOT UNDER NWS OR FAA QUALITY CONTROL.

ALZ061>064-222000-
COASTAL ALABAMA

CITY           SKY/WX    TMP DP  RH WIND       PRES   REMARKS
MOBILE REG APT TSTM      69  67  93 SE12G17   30.04F FOG
BROOKLEY FIELD PTSUNNY   82  73  74 W5        30.05R
USA CAMPUS*      N/A     68  66  94 CALM      30.04R
DOG RIVER*       N/A     82  73  74 SE7       30.04R


CITY           SKY/WX    TMP DP  RH WIND       PRES   REMARKS
MOUNT VERNON*    N/A     81  72  74 SE3       30.05S
SARALAND*      NOT AVBL
BAY MINETTE*   NOT AVBL
LOXLEY*          N/A     79  75  89 SW5       30.04F
ROBERTSDALE*     N/A     75  72  88 CALM      30.04F
FAIRHOPE*        N/A     82  73  74 E3        30.02F
ELBERTA*         N/A     79  66  65 CALM      30.03S
FOLEY*         NOT AVBL
GRAND BAY*       N/A     81  75  83 NE6       30.02R
DAUPHIN ISLND* NOT AVBL
BON SCOUR NWR* NOT AVBL
GULF SHORES    CLOUDY    83  74  72 S5        30.03R

$$

ALZ051>060-222000-
INTERIOR SOUTHWEST AND SOUTH CENTRAL ALABAMA

CITY           SKY/WX    TMP DP  RH WIND       PRES   REMARKS
GREENVILLE     PTSUNNY   86  70  58 CALM      30.05F
EVERGREEN      PTSUNNY   89  72  56 E12       30.03F HX  96
CASTLEBERRY*   NOT AVBL
ATMORE*          N/A     75  70  83 S10       30.05F
DIXIE*         NOT AVBL
ANDALUSIA/OPP  CLOUDY    86  73  65 S5        30.05F
ANDALUSIA*     NOT AVBL
FLORALA APT    CLOUDY    79  67  66 SW6       30.08F
FLORALA*         N/A     75  70  83 CALM      30.03F

$$

FLZ001>006-222000-
WESTERN FLORIDA PANHANDLE

CITY           SKY/WX    TMP DP  RH WIND       PRES   REMARKS
PENSACOLA      MOSUNNY   84  73  69 SE14      30.03F
NAS PENSACOLA  PTSUNNY   86  75  69 S12       30.02F HX  95
MILTON         TSTM      76  70  82 S9        30.05R
WHTNG S FIELD  TSTM      76  70  82 E6        30.05R


CITY           SKY/WX    TMP DP  RH WIND       PRES   REMARKS
WALNUT HILL*   NOT AVBL
JAY*           NOT AVBL
DUKE FIELD     PTSUNNY   84  78  82 NE12G20   30.05F THUNDER HX  95
CRESTVIEW      PTSUNNY   82  74  76 E13G18    30.06S THUNDER
VALPARAISO     PTSUNNY   86  75  70 S12       30.05R HX  95
DESTIN         MOSUNNY   86  76  71 SE8       30.05S HX  96

$$

MSZ076-079-222000-
INTERIOR SOUTHEAST MISSISSIPPI

CITY           SKY/WX    TMP DP  RH WIND       PRES   REMARKS
LEAKESVILLE*     N/A     86  70  58 NE7         N/A
AGRICOLA*      NOT AVBL

$$

MARINE OBSERVATIONS

STATION/POSITION TIME  TEMP    WIND        PRES    WAVE
                       AIR SEA DIR/SP/G            HT/PER
                 (UTC) (F)     (DEG/KT/KT) (MB)    (FT/S)
PASCAGOULA       1900   86     190/  8/ 10 1016.6R
PETIT BOIS ISLND 1900   85     200/  8/ 10 1017.2R
GRAND BAY        1800   85     200/  9     1018.0S
KATRINA CUT      1800   82     200/  9     1017.6F
CEDAR POINT      1800   85     130/  4     1016.6F
E DAUPHIN ISLAND 1900   83     170/  6/  8 1016.9R
MIDDLE BAY LIGHT 1800   80     120/ 12     1016.3F
USCG MOBILE BAY  1900   82 83  170/  4/  7 1016.2F
STATE DOCKS      1900   80 85              1016.9F
MEAHER PARK      1800   79     110/  6     1016.9F
WEEKS BAY        1800   73                   N/A
12 S ORANGE BCH  1900   82 83  180/  8/ 10 1016.7F   1/ 4
PENSACOLA BAY    1900   87 84  180/  7/ 11 1017.1F
64 S DAUPHIN ISL 1824   83 87  130/  4/  6 1017.7R
67 S FORT MORGAN 1800   81                 1017.6R

$$

SELECTED LOCATIONS ACROSS THE REGION

CITY           SKY/WX    TMP DP  RH WIND       PRES   REMARKS
NEW ORLEANS    PTSUNNY   85  71  63 E5        30.02F
GULFPORT       MOSUNNY   91  72  53 S8        30.00F HX  98
PASCAGOULA AP  CLOUDY    84  74  71 NE8       30.02S
PASCAGOULA*      N/A     86  73  66 S5        30.01F
HATTIESBURG    CLOUDY    84  73  69 N7        30.03S
LAUREL         PTSUNNY   75  72  88 NE5       30.06S THUNDER
MERIDIAN       LGT RAIN  84  73  69 N9        30.04F
JACKSON        CLOUDY    85  73  67 NE6       30.06S
MONTGOMERY     PTSUNNY   86  71  60 E9        30.06F
TROY           PTSUNNY   87  71  58 E8        30.07F
KINSTON*       NOT AVBL
GENEVA*          N/A     77  72  83 SW3       30.08F
ASHFORD*       NOT AVBL
DOTHAN         MOSUNNY   79  73  82 S5        30.11F
PANAMA CITY    PTSUNNY   86  72  62 S14       30.05S

$$



USA.gov is the U.S. government's official web portal to all federal, state and local government web resources and services.